This demonstration page uses our WeatherBlox Daily Observations layout. Learn more.

39.29038, -76.61219

Hourly Observations for October 3, 2015

Temp ( °F °C ) Dew Point ( °F °C ) Humidity (%) Winds ( mph kmh ) Pressure ( in mb ) Visibility ( mi km ) Precip ( " mm )
12:54 am 00:54 undefined 50 10 46 7.8 86 86 undefined N/A 30.14 1021 N/A 0 0
1:54 am 01:54 undefined 50 10 46 7.8 86 86 undefined N/A 30.11 1020 N/A 0.02 0.508
2:54 am 02:54 undefined 50 10 46 7.8 86 86 undefined N/A 30.12 1020 N/A 0 0
3:54 am 03:54 undefined 50 10 46 7.8 86 86 undefined N/A 30.1 1019 N/A 0.09 2.286
4:54 am 04:54 undefined 50 10 46 7.8 86 86 undefined N/A 30.11 1020 N/A 0.06 1.524
5:54 am 05:54 undefined 50 10 47 8.3 89 89 undefined N/A 30.12 1020 N/A 0.01 0.254
6:54 am 06:54 undefined 50 10 47 8.3 89 89 undefined N/A 30.12 1020 N/A 0.02 0.508
7:54 am 07:54 undefined 51 10.6 48 8.9 89 89 undefined N/A 30.14 1021 N/A 0.01 0.254
8:54 am 08:54 undefined 52 11.1 48 8.9 86 86 undefined N/A 30.16 1021 N/A 0 0
9:54 am 09:54 undefined 52 11.1 49 9.4 89 89 undefined N/A 30.16 1021 N/A 0 0
10:54 am 10:54 undefined 54 12.2 49 9.4 83 83 undefined N/A 30.16 1021 N/A 0 0
11:54 am 11:54 undefined 55 12.8 50 10 83 83 undefined N/A 30.16 1021 N/A 0 0
12:54 pm 12:54 undefined 56 13.3 50 10 81 81 undefined N/A 30.16 1021 N/A 0 0
1:54 pm 13:54 undefined 57 13.9 51 10.6 81 81 undefined N/A 30.16 1021 N/A 0 0
2:54 pm 14:54 undefined 58 14.4 51 10.6 78 78 undefined N/A 30.14 1021 N/A 0 0
3:54 pm 15:54 undefined 58 14.4 52 11.1 81 81 undefined N/A 30.15 1021 N/A 0 0
4:54 pm 16:54 undefined 57 13.9 52 11.1 83 83 undefined N/A 30.16 1022 N/A 0 0
5:54 pm 17:54 undefined 57 13.9 52 11.1 83 83 undefined N/A 30.18 1022 N/A 0 0
6:54 pm 18:54 undefined 56 13.3 51 10.6 84 84 undefined N/A 30.19 1022 N/A 0 0
7:54 pm 19:54 undefined 55 12.8 51 10.6 87 87 undefined N/A 30.2 1023 N/A 0.02 0.508
8:54 pm 20:54 undefined 55 12.8 51 10.6 87 87 undefined N/A 30.22 1023 N/A 0 0
9:54 pm 21:54 undefined 56 13.3 50 10 81 81 undefined N/A 30.23 1024 N/A 0 0
10:54 pm 22:54 undefined 56 13.3 50 10 81 81 undefined N/A 30.23 1024 N/A 0 0
11:54 pm 23:54 undefined 56 13.3 50 10 81 81 undefined N/A 30.23 1024 N/A 0 0

Powered by AerisWeather